SR6WXP Weather Reports


time (UTC)temp
C
wind
direction
speed
KPH
gust
KPH
rain 1hr
cm
rain 24hr
cm
rain mn
cm
humidity
%
barometer
mb
20260505192406 21 136 3.2 6.4 0.00 0.00 0.00 41 982.4
20260505192006 21 157 3.2 4.8 0.00 0.00 0.00 40 982.4
20260505191604 21 134 3.2 4.8 0.00 0.00 0.00 40 982.4
20260505191202 21 163 1.6 3.2 0.00 0.00 0.00 40 982.5
20260505190402 21 141 3.2 6.4 0.00 0.00 0.00 39 982.5
20260505190003 21 148 1.6 1.6 0.00 0.00 0.00 38 982.4
20260505185600 21 147 1.6 3.2 0.00 0.00 0.00 38 982.4
20260505185159 22 133 1.6 3.2 0.00 0.00 0.00 38 982.5
20260505184759 22 140 1.6 3.2 0.00 0.00 0.00 37 982.5
20260505184359 22 135 1.6 4.8 0.00 0.00 0.00 37 982.4
20260505183959 22 138 1.6 3.2 0.00 0.00 0.00 36 982.4
20260505183557 22 134 3.2 6.4 0.00 0.00 0.00 36 982.4
20260505183157 22 138 3.2 4.8 0.00 0.00 0.00 36 982.5
20260505182757 23 133 4.8 8.0 0.00 0.00 0.00 36 982.5
20260505182357 23 142 4.8 9.7 0.00 0.00 0.00 35 982.5
20260505181957 23 134 6.4 11.3 0.00 0.00 0.00 35 982.5
20260505181555 23 129 3.2 8.0 0.00 0.00 0.00 34 982.5
20260505181155 23 129 4.8 8.0 0.00 0.00 0.00 34 982.4
20260505180755 24 133 3.2 9.7 0.00 0.00 0.00 34 982.4
20260505180352 24 137 3.2 6.4 0.00 0.00 0.00 33 982.4
20260505175952 25 125 4.8 8.0 0.00 0.00 0.00 33 982.4
20260505175550 25 137 4.8 8.0 0.00 0.00 0.00 33 982.4
20260505175151 25 123 6.4 11.3 0.00 0.00 0.00 33 982.4
20260505174751 26 128 4.8 9.7 0.00 0.00 0.00 32 982.4
20260505174351 26 127 4.8 9.7 0.00 0.00 0.00 32 982.4
20260505173951 26 136 1.6 3.2 0.00 0.00 0.00 32 982.4
20260505173541 27 132 4.8 9.7 0.00 0.00 0.00 31 982.4
20260505173140 27 152 3.2 6.4 0.00 0.00 0.00 30 982.4
20260505172737 27 157 3.2 6.4 0.00 0.00 0.00 30 982.4
20260505172336 27 158 6.4 14.5 0.00 0.00 0.00 29 982.4
20260505171936 28 155 8.0 14.5 0.00 0.00 0.00 29 982.4
20260505171534 28 157 6.4 11.3 0.00 0.00 0.00 29 982.4
20260505171134 28 152 4.8 11.3 0.00 0.00 0.00 29 982.4
20260505170734 28 169 8.0 16.1 0.00 0.00 0.00 28 982.4
20260505170334 28 136 4.8 11.3 0.00 0.00 0.00 29 982.4
20260505165934 28 145 6.4 16.1 0.00 0.00 0.00 28 982.4
20260505165532 28 164 6.4 11.3 0.00 0.00 0.00 28 982.4
20260505165129 29 139 11.3 27.4 0.00 0.00 0.00 28 982.4
20260505164730 29 146 12.9 19.3 0.00 0.00 0.00 28 982.4
20260505164330 29 134 9.7 19.3 0.00 0.00 0.00 28 982.4
20260505163930 29 164 12.9 25.7 0.00 0.00 0.00 27 982.3
20260505163528 29 177 12.9 22.5 0.00 0.00 0.00 27 982.4
20260505163128 29 154 9.7 17.7 0.00 0.00 0.00 27 982.4
20260505162728 29 154 9.7 16.1 0.00 0.00 0.00 27 982.4
20260505162328 29 169 11.3 22.5 0.00 0.00 0.00 27 982.4
20260505161928 29 147 16.1 24.1 0.00 0.00 0.00 27 982.4
20260505161526 29 165 11.3 17.7 0.00 0.00 0.00 27 982.4
20260505161126 29 156 12.9 22.5 0.00 0.00 0.00 28 982.4
20260505160726 28 170 9.7 22.5 0.00 0.00 0.00 28 982.5
20260505160326 28 151 4.8 8.0 0.00 0.00 0.00 28 982.4
20260505153119 30 144 12.9 22.5 0.00 0.00 0.00 28 982.4
20260505152719 30 131 14.5 25.7 0.00 0.00 0.00 28 982.4
20260505152320 30 143 11.3 29.0 0.00 0.00 0.00 28 982.5
20260505151920 30 163 11.3 24.1 0.00 0.00 0.00 28 982.5
20260505151518 30 140 12.9 32.2 0.00 0.00 0.00 29 982.4
20260505151118 30 171 6.4 11.3 0.00 0.00 0.00 29 982.5
20260505150718 30 138 8.0 24.1 0.00 0.00 0.00 29 982.5
20260505150310 30 151 9.7 20.9 0.00 0.00 0.00 29 982.5
20260505140259 26 201 11.3 17.7 0.00 0.00 0.00 34 982.8
20260505130251 24 162 16.1 25.7 0.00 0.00 0.00 37 983.3
20260505124649 23 178 12.9 20.9 0.00 0.00 0.00 38 983.6
20260505124249 23 132 9.7 20.9 0.00 0.00 0.00 38 983.6
20260505123849 23 174 9.7 16.1 0.00 0.00 0.00 38 983.5
20260505123440 23 187 8.0 17.7 0.00 0.00 0.00 38 983.6
20260505123039 23 130 14.5 24.1 0.00 0.00 0.00 38 983.7
20260505122638 23 127 12.9 30.6 0.00 0.00 0.00 38 983.7
20260505122237 23 133 9.7 20.9 0.00 0.00 0.00 38 983.8
20260505121837 23 118 9.7 19.3 0.00 0.00 0.00 38 983.7
20260505121435 23 171 9.7 16.1 0.00 0.00 0.00 38 983.8
20260505121033 23 168 11.3 22.5 0.00 0.00 0.00 39 983.9
20260505120632 22 165 11.3 24.1 0.00 0.00 0.00 39 983.9
20260505120232 22 144 11.3 20.9 0.00 0.00 0.00 39 984.0
20260505115832 22 177 9.7 17.7 0.00 0.00 0.00 39 984.0
20260505115430 22 180 11.3 17.7 0.00 0.00 0.00 38 984.0
20260505115155 22 169 14.5 20.9 0.00 0.00 0.00 38 984.1
20260505115030 22 169 14.5 20.9 0.00 0.00 0.00 38 984.1
20260505114630 22 161 11.3 22.5 0.00 0.00 0.00 38 984.1
20260505114230 22 150 12.9 27.4 0.00 0.00 0.00 38 984.1
20260505113830 22 145 12.9 24.1 0.00 0.00 0.00 38 984.1
20260505113428 22 141 9.7 17.7 0.00 0.00 0.00 38 984.1
20260505113028 22 135 9.7 16.1 0.00 0.00 0.00 38 984.2
20260505112935 22 153 11.3 20.9 0.00 0.00 0.00 38 984.2
20260505112627 22 153 11.3 20.9 0.00 0.00 0.00 38 984.2
20260505112227 22 134 14.5 32.2 0.00 0.00 0.00 38 984.2
20260505111827 22 149 8.0 14.5 0.00 0.00 0.00 38 984.3
20260505111425 22 149 8.0 14.5 0.00 0.00 0.00 38 984.3
20260505111025 22 151 8.0 16.1 0.00 0.00 0.00 38 984.3
20260505110625 22 136 8.0 17.7 0.00 0.00 0.00 38 984.3
20260505110223 22 145 9.7 17.7 0.00 0.00 0.00 38 984.3
20260505102219 22 134 8.0 22.5 0.00 0.00 0.00 38 984.7
20260505102135 22 134 9.7 16.1 0.00 0.00 0.00 38 984.7
20260505101819 22 134 9.7 16.1 0.00 0.00 0.00 38 984.7
20260505101417 22 134 11.3 19.3 0.00 0.00 0.00 38 984.7
20260505101017 22 150 9.7 17.7 0.00 0.00 0.00 38 984.8
20260505100617 22 149 9.7 16.1 0.00 0.00 0.00 38 984.8
20260505095809 22 145 14.5 22.5 0.00 0.00 0.00 38 984.8
20260505095406 22 182 9.7 17.7 0.00 0.00 0.00 38 985.0
20260505095003 22 130 8.0 12.9 0.00 0.00 0.00 38 985.0
20260505094603 22 153 14.5 19.3 0.00 0.00 0.00 38 985.1
20260505094203 22 157 12.9 20.9 0.00 0.00 0.00 39 985.1
20260505093803 22 147 12.9 20.9 0.00 0.00 0.00 39 985.1
20260505093401 22 139 14.5 25.7 0.00 0.00 0.00 39 985.2
20260505093001 22 137 9.7 20.9 0.00 0.00 0.00 40 985.2
20260505092601 22 118 11.3 22.5 0.00 0.00 0.00 40 985.2
20260505092201 22 156 11.3 25.7 0.00 0.00 0.00 40 985.3
20260505091801 22 143 11.3 22.5 0.00 0.00 0.00 40 985.3
20260505091359 21 192 9.7 24.1 0.00 0.00 0.00 40 985.3
20260505090959 21 158 8.0 12.9 0.00 0.00 0.00 41 985.3
20260505090559 21 173 9.7 17.7 0.00 0.00 0.00 41 985.4
20260505090159 21 129 9.7 20.9 0.00 0.00 0.00 41 985.4
20260505085759 21 116 14.5 20.9 0.00 0.00 0.00 41 985.4
20260505085358 21 150 9.7 16.1 0.00 0.00 0.00 41 985.5
20260505084958 21 133 8.0 22.5 0.00 0.00 0.00 41 985.5
20260505084557 21 153 9.7 17.7 0.00 0.00 0.00 41 985.5
20260505084155 21 124 12.9 19.3 0.00 0.00 0.00 41 985.5
20260505083755 21 128 14.5 22.5 0.00 0.00 0.00 41 985.6
20260505083352 21 121 16.1 27.4 0.00 0.00 0.00 41 985.6
20260505082952 21 105 16.1 22.5 0.00 0.00 0.00 41 985.5
20260505082553 21 129 11.3 16.1 0.00 0.00 0.00 41 985.6
20260505082153 21 139 12.9 24.1 0.00 0.00 0.00 41 985.6
20260505081753 21 151 9.7 17.7 0.00 0.00 0.00 41 985.7
20260505081351 20 136 11.3 22.5 0.00 0.00 0.00 42 985.7
20260505080951 20 118 9.7 20.9 0.00 0.00 0.00 42 985.7
20260505080548 20 113 19.3 29.0 0.00 0.00 0.00 42 985.7
20260505080148 20 145 9.7 19.3 0.00 0.00 0.00 42 985.7
20260505075748 20 127 8.0 14.5 0.00 0.00 0.00 43 985.8
20260505075346 20 118 9.7 16.1 0.00 0.00 0.00 43 985.8
20260505074946 20 118 9.7 16.1 0.00 0.00 0.00 43 985.8
20260505074547 20 128 6.4 12.9 0.00 0.00 0.00 43 985.9
20260505074147 20 111 11.3 19.3 0.00 0.00 0.00 43 985.8
20260505073747 20 117 11.3 24.1 0.00 0.00 0.00 43 985.9
20260505073337 20 115 12.9 19.3 0.00 0.00 0.00 43 985.9
20260505072934 19 126 8.0 12.9 0.00 0.00 0.00 43 985.9
20260505072533 19 117 9.7 16.1 0.00 0.00 0.00 43 986.0
20260505072132 19 120 8.0 14.5 0.00 0.00 0.00 44 986.0
20260505071732 19 113 6.4 9.7 0.00 0.00 0.00 44 986.0
20260505071330 19 109 8.0 17.7 0.00 0.00 0.00 44 986.0
20260505070930 19 120 9.7 16.1 0.00 0.00 0.00 44 986.1
20260505070530 19 114 9.7 16.1 0.00 0.00 0.00 44 986.1
20260505070131 19 125 6.4 16.1 0.00 0.00 0.00 44 986.1
20260505065329 18 114 9.7 14.5 0.00 0.00 0.00 44 986.1
20260505064929 18 121 9.7 19.3 0.00 0.00 0.00 44 986.1
20260505064529 18 111 11.3 24.1 0.00 0.00 0.00 45 986.1
20260505064129 18 110 9.7 12.9 0.00 0.00 0.00 45 986.1
20260505063729 18 125 9.7 17.7 0.00 0.00 0.00 45 986.1
20260505063327 18 126 6.4 11.3 0.00 0.00 0.00 46 986.2
20260505062928 18 116 8.0 16.1 0.00 0.00 0.00 46 986.2
20260505062527 18 116 11.3 17.7 0.00 0.00 0.00 46 986.2
20260505062125 18 112 8.0 12.9 0.00 0.00 0.00 47 986.2
20260505061725 18 131 8.0 9.7 0.00 0.00 0.00 47 986.1
20260505061323 18 110 8.0 14.5 0.00 0.00 0.00 48 986.2
20260505060923 17 114 6.4 11.3 0.00 0.00 0.00 48 986.2
20260505060523 17 104 6.4 11.3 0.00 0.00 0.00 48 986.3
20260505060123 17 108 8.0 12.9 0.00 0.00 0.00 49 986.3
20260505055723 17 109 8.0 14.5 0.00 0.00 0.00 48 986.4
20260505055321 17 110 8.0 9.7 0.00 0.00 0.00 49 986.4
20260505054921 17 108 8.0 12.9 0.00 0.00 0.00 49 986.5
20260505054519 17 110 6.4 9.7 0.00 0.00 0.00 49 986.5
20260505054119 17 128 6.4 11.3 0.00 0.00 0.00 49 986.5
20260505053719 16 117 6.4 9.7 0.00 0.00 0.00 50 986.5
20260505053317 16 117 6.4 9.7 0.00 0.00 0.00 50 986.6
20260505052917 16 119 6.4 11.3 0.00 0.00 0.00 50 986.6
20260505052517 16 110 6.4 12.9 0.00 0.00 0.00 50 986.6
20260505052117 16 112 6.4 12.9 0.00 0.00 0.00 51 986.5
20260505051717 16 118 6.4 11.3 0.00 0.00 0.00 51 986.5
20260505051315 16 110 8.0 14.5 0.00 0.00 0.00 51 986.5
20260505050913 16 118 6.4 12.9 0.00 0.00 0.00 51 986.5
20260505050513 15 115 6.4 9.7 0.00 0.00 0.00 52 986.5
20260505050105 15 114 6.4 9.7 0.00 0.00 0.00 52 986.5
20260505041658 14 112 4.8 8.0 0.00 0.00 0.00 56 986.7
20260505041256 14 112 4.8 8.0 0.00 0.00 0.00 56 986.7
20260505040856 14 122 4.8 8.0 0.00 0.00 0.00 56 986.7
20260505040456 14 113 4.8 6.4 0.00 0.00 0.00 56 986.8
20260505040054 13 123 4.8 8.0 0.00 0.00 0.00 56 986.8
20260505035654 13 124 3.2 6.4 0.00 0.00 0.00 57 986.8
20260505035252 13 119 4.8 8.0 0.00 0.00 0.00 57 986.7
20260505034452 13 122 4.8 8.0 0.00 0.00 0.00 58 986.8
20260505034052 13 118 3.2 6.4 0.00 0.00 0.00 58 986.9
20260505033652 13 110 4.8 6.4 0.00 0.00 0.00 58 986.9
20260505033250 13 105 6.4 8.0 0.00 0.00 0.00 58 986.9
20260505032850 13 107 4.8 6.4 0.00 0.00 0.00 58 986.9
20260505032048 14 109 4.8 6.4 0.00 0.00 0.00 57 987.0
20260505031648 14 109 3.2 4.8 0.00 0.00 0.00 57 987.0
20260505031246 14 109 4.8 6.4 0.00 0.00 0.00 57 987.0
20260505030846 14 113 3.2 4.8 0.00 0.00 0.00 57 987.1
20260505030446 14 118 3.2 4.8 0.00 0.00 0.00 57 987.1
20260505030046 14 114 3.2 4.8 0.00 0.00 0.00 57 987.1
20260505025646 14 113 4.8 6.4 0.00 0.00 0.00 57 987.1
20260505025244 14 112 4.8 6.4 0.00 0.00 0.00 57 987.2
20260505024842 14 113 4.8 6.4 0.00 0.00 0.00 57 987.2
20260505024442 14 111 3.2 6.4 0.00 0.00 0.00 57 987.2
20260505024042 14 112 4.8 6.4 0.00 0.00 0.00 57 987.3
20260505023642 14 116 3.2 4.8 0.00 0.00 0.00 57 987.4
20260505023232 15 114 4.8 6.4 0.00 0.00 0.00 57 987.5
20260505022832 15 115 4.8 6.4 0.00 0.00 0.00 57 987.5
20260505022431 15 114 4.8 6.4 0.00 0.00 0.00 57 987.5
20260505022029 15 109 6.4 8.0 0.00 0.00 0.00 57 987.5
20260505021629 15 112 4.8 6.4 0.00 0.00 0.00 57 987.6
20260505021227 15 117 3.2 6.4 0.00 0.00 0.00 56 987.6
20260505020827 15 118 4.8 6.4 0.00 0.00 0.00 57 987.6
20260505020427 15 128 3.2 4.8 0.00 0.00 0.00 57 987.6
20260505020027 15 137 3.2 9.7 0.00 0.00 0.00 56 987.7
20260505015627 15 112 3.2 4.8 0.00 0.00 0.00 56 987.7
20260505015225 15 111 4.8 6.4 0.00 0.00 0.00 56 987.7
20260505014825 15 110 4.8 6.4 0.00 0.00 0.00 56 987.7
20260505014425 15 115 4.8 6.4 0.00 0.00 0.00 56 987.7
20260505014022 15 114 3.2 6.4 0.00 0.00 0.00 56 987.7
20260505013622 15 113 6.4 6.4 0.00 0.00 0.00 56 987.7
20260505013220 15 119 3.2 6.4 0.00 0.00 0.00 56 987.7
20260505012820 15 114 4.8 6.4 0.00 0.00 0.00 56 987.8
20260505012420 15 116 4.8 6.4 0.00 0.00 0.00 55 987.8
20260505012020 15 123 4.8 8.0 0.00 0.00 0.00 56 987.8
20260505011620 15 120 3.2 4.8 0.00 0.00 0.00 55 987.9
20260505010818 16 110 4.8 6.4 0.00 0.00 0.00 55 987.8
20260505010417 16 123 3.2 4.8 0.00 0.00 0.00 55 987.9
20260505010017 16 124 1.6 4.8 0.00 0.00 0.00 55 987.9
20260505005617 16 116 4.8 6.4 0.00 0.00 0.00 55 987.9
20260505005215 16 117 3.2 6.4 0.00 0.00 0.00 54 988.0
20260505004815 16 110 4.8 8.0 0.00 0.00 0.00 54 987.9
20260505004415 16 114 4.8 6.4 0.00 0.00 0.00 54 988.0
20260505004015 16 110 4.8 6.4 0.00 0.00 0.00 53 988.0
20260505003615 16 109 4.8 6.4 0.00 0.00 0.00 53 988.0
20260505003213 16 109 4.8 4.8 0.00 0.00 0.00 52 988.0
20260505002811 16 104 4.8 6.4 0.00 0.00 0.00 52 988.1
20260505002411 17 124 3.2 6.4 0.00 0.00 0.00 52 988.1
20260505002011 17 134 4.8 6.4 0.00 0.00 0.00 52 988.1
20260505001611 17 141 3.2 4.8 0.00 0.00 0.00 51 988.2
20260505001209 17 116 3.2 4.8 0.00 0.00 0.00 51 988.2
20260505000809 17 117 4.8 6.4 0.00 0.00 0.00 50 988.2
20260505000409 17 148 4.8 6.4 0.00 0.00 0.00 50 988.2
20260505000001 17 158 6.4 8.0 0.00 0.00 0.00 50 988.2
20260504235600 17 162 8.0 11.3 0.00 0.00 0.00 50 988.3
20260504235157 17 165 6.4 11.3 0.00 0.00 0.00 50 988.3
20260504234756 17 155 6.4 9.7 0.00 0.00 0.00 50 988.3
20260504234356 17 154 6.4 9.7 0.00 0.00 0.00 50 988.4
20260504233956 17 150 4.8 8.0 0.00 0.00 0.00 50 988.4
20260504233556 17 147 6.4 9.7 0.00 0.00 0.00 50 988.4
20260504233154 17 163 4.8 8.0 0.00 0.00 0.00 50 988.5
20260504232754 17 152 4.8 6.4 0.00 0.00 0.00 50 988.5
20260504232354 17 154 3.2 6.4 0.00 0.00 0.00 50 988.5
20260504231951 17 153 4.8 9.7 0.00 0.00 0.00 50 988.5
20260504231551 17 158 6.4 8.0 0.00 0.00 0.00 50 988.5
20260504231149 17 161 6.4 9.7 0.00 0.00 0.00 50 988.5
20260504230749 17 158 4.8 9.7 0.00 0.00 0.00 50 988.6
20260504230349 17 165 4.8 8.0 0.00 0.00 0.00 50 988.6
20260504225949 17 161 6.4 11.3 0.00 0.00 0.00 50 988.6
20260504225549 17 157 4.8 6.4 0.00 0.00 0.00 50 988.6
20260504225147 17 175 4.8 8.0 0.00 0.00 0.00 50 988.7
20260504224747 17 178 4.8 6.4 0.00 0.00 0.00 50 988.7
20260504224347 17 182 4.8 9.7 0.00 0.00 0.00 50 988.7
20260504223947 18 176 4.8 8.0 0.00 0.00 0.00 50 988.7
20260504223546 18 171 4.8 9.7 0.00 0.00 0.00 50 988.7
20260504223144 18 171 4.8 6.4 0.00 0.00 0.00 50 988.8
20260504222744 18 170 4.8 8.0 0.00 0.00 0.00 50 988.8
20260504222344 18 169 4.8 6.4 0.00 0.00 0.00 50 988.9
20260504221944 18 163 4.8 9.7 0.00 0.00 0.00 50 988.9
20260504221544 18 176 4.8 8.0 0.00 0.00 0.00 50 988.9
20260504221142 18 161 4.8 9.7 0.00 0.00 0.00 50 988.9
20260504220740 18 151 4.8 8.0 0.00 0.00 0.00 50 988.9
20260504220339 18 169 3.2 8.0 0.00 0.00 0.00 50 988.9
20260504215939 18 171 4.8 12.9 0.00 0.00 0.00 50 988.9
20260504215539 18 167 4.8 6.4 0.00 0.00 0.00 50 988.9
20260504215137 18 156 4.8 9.7 0.00 0.00 0.00 50 988.9
20260504214737 18 165 4.8 11.3 0.00 0.00 0.00 50 988.9
20260504214337 18 151 4.8 6.4 0.00 0.00 0.00 50 988.9
20260504213937 18 164 6.4 8.0 0.00 0.00 0.00 50 989.0
20260504213537 18 162 4.8 8.0 0.00 0.00 0.00 50 988.9
20260504213128 18 170 6.4 11.3 0.00 0.00 0.00 50 988.9
20260504212727 18 174 6.4 11.3 0.00 0.00 0.00 50 989.0
20260504212326 18 165 6.4 14.5 0.00 0.00 0.00 50 989.0
20260504211925 18 174 6.4 11.3 0.00 0.00 0.00 50 989.0
20260504211525 18 167 6.4 8.0 0.00 0.00 0.00 50 989.0
20260504211123 18 166 6.4 8.0 0.00 0.00 0.00 50 989.0
20260504210723 19 164 6.4 11.3 0.00 0.00 0.00 51 989.0
20260504210323 19 175 6.4 9.7 0.00 0.00 0.00 51 989.0
20260504205921 19 170 4.8 8.0 0.00 0.00 0.00 51 989.0
20260504205521 19 162 4.8 9.7 0.00 0.00 0.00 51 989.0
20260504205119 19 156 4.8 9.7 0.00 0.00 0.00 50 989.0
20260504204719 19 164 4.8 9.7 0.00 0.00 0.00 50 989.0
20260504204319 19 160 4.8 8.0 0.00 0.00 0.00 50 989.0
20260504203919 19 180 3.2 8.0 0.00 0.00 0.00 50 989.0
20260504203519 20 165 4.8 8.0 0.00 0.00 0.00 50 989.0
20260504203117 20 158 4.8 8.0 0.00 0.00 0.00 50 989.0
20260504202717 20 173 4.8 6.4 0.00 0.00 0.00 50 988.9
20260504202317 20 176 4.8 6.4 0.00 0.00 0.00 50 989.0
20260504201917 20 187 3.2 6.4 0.00 0.00 0.00 50 989.0
20260504201517 20 178 4.8 9.7 0.00 0.00 0.00 50 988.9
20260504201115 20 167 4.8 8.0 0.00 0.00 0.00 50 989.0
20260504200715 20 163 3.2 6.4 0.00 0.00 0.00 50 988.9
20260504200315 20 162 6.4 11.3 0.00 0.00 0.00 50 988.9
20260504195915 20 166 4.8 8.0 0.00 0.00 0.00 49 988.9
20260504195515 20 169 6.4 11.3 0.00 0.00 0.00 49 988.9
20260504195113 20 167 4.8 9.7 0.00 0.00 0.00 49 988.9
20260504194711 20 169 4.8 9.7 0.00 0.00 0.00 49 988.9
20260504194311 20 162 4.8 9.7 0.00 0.00 0.00 49 988.9
20260504193911 20 156 3.2 6.4 0.00 0.00 0.00 49 988.9
20260504193511 20 159 4.8 8.0 0.00 0.00 0.00 49 988.9
20260504193109 20 153 4.8 11.3 0.00 0.00 0.00 49 988.8